This is the latest recevied weather packets stored in our database for station/object KB2FWP. If no packets are shown the sender has not sent any weather packets the latest 10 day(s).
| Time | Temp. | Humidity | Pressure | Rain* | Wind** | Luminosity | Snow |
|---|---|---|---|---|---|---|---|
| 1777607144 | 11.11° C | 77% | 1011.3 hPa | 0 mm | - | - | - |
| 1777606230 | 10.56° C | 80% | 1011.3 hPa | 0 mm | - | - | - |
| 1777605329 | 10.56° C | 81% | 1011.4 hPa | 0 mm | - | - | - |
| 1777604429 | 10.56° C | 82% | 1011.2 hPa | 0 mm | - | - | - |
| 1777603531 | 10.56° C | 83% | 1011.1 hPa | 0 mm | - | - | - |
| 1777602627 | 10° C | 86% | 1011.2 hPa | 0 mm | - | - | - |
| 1777601725 | 10° C | 88% | 1011 hPa | 0 mm | - | - | - |
| 1777600846 | 10° C | 91% | 1010.9 hPa | 0 mm | - | - | - |
| 1777599925 | 10° C | 92% | 1010.7 hPa | 0 mm | - | - | - |
| 1777599024 | 10.56° C | 92% | 1010.5 hPa | 0 mm | - | - | - |
| 1777598124 | 10.56° C | 92% | 1010.2 hPa | 0 mm | - | - | - |
| 1777597223 | 11.11° C | 92% | 1009.9 hPa | 0 mm | - | - | - |
| 1777596321 | 11.11° C | 92% | 1009.6 hPa | 0 mm | - | - | - |
| 1777595421 | 11.11° C | 92% | 1009.3 hPa | 0 mm | - | - | - |
| 1777594521 | 11.67° C | 92% | 1009.3 hPa | 0 mm | - | - | - |
| 1777593620 | 11.67° C | 91% | 1009.2 hPa | 0 mm | - | - | - |
| 1777592719 | 12.22° C | 91% | 1009 hPa | 0 mm | - | - | - |
| 1777591821 | 12.22° C | 91% | 1009.1 hPa | 0 mm | - | - | - |
| 1777590922 | 12.22° C | 90% | 1009.1 hPa | 0 mm | - | - | - |
| 1777590018 | 12.22° C | 89% | 1009.3 hPa | 0 mm | - | - | - |
| 1777589117 | 12.22° C | 88% | 1009 hPa | 0 mm | - | - | - |
| 1777588230 | 12.22° C | 89% | 1009 hPa | 0 mm | - | - | - |
| 1777587339 | 12.22° C | 90% | 1008.9 hPa | 0 mm | - | - | - |
| 1777586416 | 11.67° C | 90% | 1008.9 hPa | 0 mm | - | - | - |
| 1777585534 | 11.67° C | 90% | 1008.7 hPa | 0 mm | - | - | - |
* Rain latest hour (hover to see other rain measurements)
** Current wind speed in m/s (hover to see current wind gust speed)